Flag for Switzerland Weather past 2 weeks in Pully, Vaud, Switzerland

Now
64 °F

Mild.


Feels Like: 64 °F
Forecast: 60 / 71 °F
Wind: 3 mph from South

Location: Aigle

Current Time: Aug 31, 2015 at 5:28:44 AM

Latest Report: Aug 31, 2015 at 4:00 AM


Visibility: N/A

Pressure: 30.05 "Hg

Humidity: 90%

Dew point: 61 °F

Location of PullyLocation

Historic Weather in Pully — Graph

°F

Pully temperature yesterday

Maximum temperature yesterday: 82 °F (at 6:00 PM)
Minimum temperature yesterday: 61 °F (at 7:00 AM)
Average temperature yesterday: 72 °F

Past Weeks' High & Low Weather Summary

 TemperatureHumidityPressure
High83 °F (Aug 28, 5:00 PM)98% (Aug 17, 12:00 AM)30.24 "Hg (Aug 17, 12:00 AM)
Low51 °F (Aug 20, 7:00 AM)37% (Aug 20, 6:00 PM)29.70 "Hg (Aug 24, 5:00 AM)
Average65 °F78%30.01 "Hg
* Reported Aug 16 4:00 AM — Aug 31 4:00 AM, Pully, Weather by CustomWeather, © 2015

Note: Actual official high and low records may vary slightly from our data, if they occured in-between our weather recording intervals... More about our weather records

Advertising

Pully weather history for previous 24 hours

 ConditionsComfort  
Time TempWeatherWind HumidityBarometerVisibility
4:00 AM
Mon, Aug 31
64 °FMild.3 mph90%30.05 "HgN/A
3:00 AM63 °FMild.3 mph95%30.06 "HgN/A
2:00 AM66 °FMild.6 mph90%30.05 "HgN/A
1:00 AM66 °FMild.3 mph92%30.06 "HgN/A
12:00 AM67 °FMild.No wind92%30.07 "HgN/A
10:00 PM
Sun, Aug 30
70 °FMild.1 mph90%30.07 "HgN/A
9:00 PM72 °FMild.3 mph78%30.05 "HgN/A
8:00 PM74 °FPassing clouds.2 mph83%30.03 "Hg19 mi
7:00 PM80 °FWarm.2 mph60%30.01 "HgN/A
6:00 PM82 °FWarm.3 mph53%30.01 "HgN/A
5:00 PM82 °FPassing clouds.6 mph52%30.01 "Hg16 mi
4:00 PM82 °FWarm.6 mph56%30.01 "HgN/A
3:00 PM82 °FWarm.7 mph52%30.03 "HgN/A
2:00 PM82 °FSunny.7 mph58%30.05 "Hg16 mi
1:00 PM80 °FWarm.10 mph59%30.08 "HgN/A
12:00 PM79 °FWarm.6 mph55%30.09 "HgN/A
11:00 AM77 °FWarm.6 mph60%30.11 "HgN/A
10:00 AM76 °FMild.2 mph55%30.11 "HgN/A
9:00 AM72 °FMild.6 mph66%30.12 "HgN/A
8:00 AM67 °FSunny.7 mph79%30.14 "Hg19 mi
7:00 AM61 °FCool.5 mph94%30.16 "HgN/A
6:00 AM62 °FCool.1 mph93%30.15 "HgN/A
5:00 AM63 °FPassing clouds.5 mph92%30.14 "Hg22 mi
Weather by CustomWeather, © 2015

See weather overviewHow to use our weather pages